9A3XK-13 Weather Reports


Display with metric or nautical units.
time (UTC)temp
F
wind
direction
speed
MPH
gust
MPH
rain 1hr
in
rain 24hr
in
rain mn
in
humidity
%
barometer
mb
20260507113515 68 270 2.0 4.0 0.00 0.15 0.01 66 1013.5
20260507113017 68 270 2.0 5.0 0.00 0.15 0.01 66 1013.6
20260507112517 68 270 3.0 5.0 0.00 0.15 0.01 66 1013.6
20260507112017 68 270 3.0 7.0 0.00 0.15 0.01 69 1013.6
20260507111517 68 293 4.0 8.0 0.00 0.15 0.01 69 1013.6
20260507111017 68 248 4.0 8.0 0.00 0.15 0.01 69 1013.6
20260507110517 68 225 2.0 5.0 0.00 0.15 0.01 69 1013.7
20260507110017 69 248 4.0 7.0 0.00 0.15 0.01 68 1013.6
20260507105517 68 0.0 4.0 0.00 0.15 0.01 69 1013.6
20260507105017 68 248 1.0 4.0 0.00 0.15 0.01 68 1013.7
20260507104517 68 270 3.0 5.0 0.00 0.15 0.01 69 1013.7
20260507104017 68 293 4.0 7.0 0.00 0.15 0.01 70 1013.7
20260507103517 68 270 3.0 6.0 0.00 0.15 0.01 69 1013.8
20260507103017 68 293 2.0 5.0 0.00 0.15 0.01 69 1013.8
20260507102517 68 293 3.0 4.0 0.00 0.15 0.01 68 1013.8
20260507102017 68 293 2.0 5.0 0.00 0.15 0.01 69 1013.9
20260507101517 68 270 2.0 5.0 0.00 0.15 0.01 69 1013.9
20260507101017 67 225 2.0 4.0 0.00 0.15 0.01 69 1014.0
20260507100517 67 248 3.0 6.0 0.00 0.15 0.01 70 1014.0
20260507100017 67 293 2.0 4.0 0.00 0.15 0.01 70 1013.9
20260507095516 67 270 3.0 7.0 0.00 0.15 0.01 71 1014.0
20260507095017 66 293 3.0 4.0 0.00 0.15 0.01 69 1014.0
20260507094517 66 270 3.0 6.0 0.00 0.15 0.01 69 1014.0
20260507094017 66 293 2.0 4.0 0.00 0.15 0.01 72 1014.1
20260507093517 65 338 1.0 3.0 0.00 0.15 0.01 75 1013.9
20260507093016 65 315 1.0 3.0 0.00 0.15 0.01 77 1013.9
20260507092517 65 338 1.0 3.0 0.00 0.15 0.01 79 1013.9
20260507092017 64 0.0 1.0 0.00 0.15 0.01 80 1013.9
20260507091517 63 0.0 1.0 0.00 0.15 0.01 80 1014.0
20260507091017 63 338 1.0 2.0 0.00 0.15 0.01 80 1014.0
20260507090517 63 338 1.0 3.0 0.00 0.15 0.01 81 1014.0
20260507090017 63 0.0 1.0 0.00 0.15 0.01 82 1014.0
20260507085516 63 0.0 1.0 0.00 0.15 0.01 82 1014.0
20260507085017 62 338 1.0 3.0 0.00 0.15 0.01 82 1013.9
20260507084516 62 0.0 2.0 0.00 0.15 0.01 82 1013.9
20260507084016 62 0.0 1.0 0.00 0.15 0.01 82 1013.9
20260507083517 62 0.0 1.0 0.00 0.15 0.01 82 1013.9
20260507083017 62 270 1.0 2.0 0.00 0.15 0.01 82 1014.0
20260507082516 62 270 1.0 2.0 0.00 0.15 0.01 82 1013.9
20260507082016 62 180 1.0 3.0 0.00 0.15 0.01 82 1013.9
20260507081517 62 180 1.0 2.0 0.00 0.15 0.01 82 1013.9
20260507081016 62 180 1.0 3.0 0.00 0.15 0.01 82 1013.8
20260507080516 62 0.0 2.0 0.00 0.15 0.01 82 1013.7
20260507080017 62 0.0 2.0 0.00 0.15 0.01 82 1013.7
20260507075517 62 0.0 2.0 0.00 0.15 0.01 82 1013.7
20260507075016 62 135 1.0 3.0 0.00 0.15 0.01 82 1013.8
20260507074516 62 135 2.0 3.0 0.00 0.15 0.01 83 1013.8
20260507074016 61 0.0 2.0 0.00 0.15 0.01 83 1013.7
20260507073517 61 0.0 0.0 0.00 0.15 0.01 83 1013.6
20260507073017 61 0.0 0.0 0.00 0.15 0.01 83 1013.5
20260507072516 61 0.0 0.0 0.01 0.15 0.01 83 1013.5
20260507072016 61 180 1.0 3.0 0.01 0.15 0.01 83 1013.5
20260507071516 61 180 1.0 2.0 0.01 0.15 0.01 83 1013.5
20260507071016 60 180 1.0 2.0 0.01 0.15 0.01 83 1013.4
20260507070516 60 23 1.0 3.0 0.01 0.15 0.01 83 1013.5
20260507070016 60 23 1.0 3.0 0.01 0.15 0.01 83 1013.4
20260507065516 60 23 1.0 3.0 0.01 0.15 0.01 83 1013.3
20260507065016 60 0 2.0 4.0 0.01 0.15 0.01 83 1013.3
20260507064516 60 23 1.0 4.0 0.01 0.15 0.01 83 1013.2
20260507064016 60 23 2.0 5.0 0.01 0.15 0.01 83 1013.2
20260507063516 60 338 1.0 4.0 0.01 0.15 0.01 83 1013.3
20260507063016 60 338 2.0 4.0 0.01 0.15 0.01 83 1013.3
20260507062516 60 0 1.0 3.0 0.00 0.14 0.00 82 1013.3
20260507062016 60 338 2.0 4.0 0.00 0.14 0.00 82 1013.3
20260507061516 60 315 2.0 3.0 0.00 0.14 0.00 82 1013.3
20260507061017 60 315 1.0 3.0 0.00 0.14 0.00 82 1013.2
20260507060516 60 203 1.0 2.0 0.00 0.14 0.00 82 1013.2
20260507060016 60 203 1.0 1.0 0.00 0.14 0.00 82 1013.2
20260507055517 60 0.0 1.0 0.00 0.14 0.00 82 1013.2
20260507055016 60 0.0 1.0 0.00 0.14 0.00 82 1013.1
20260507054516 60 0.0 0.0 0.00 0.14 0.00 82 1013.0
20260507054016 60 0.0 1.0 0.00 0.14 0.00 82 1012.9
20260507053516 60 203 1.0 2.0 0.00 0.14 0.00 82 1012.9
20260507053016 60 0.0 1.0 0.00 0.14 0.00 82 1012.9
20260507052516 60 0.0 1.0 0.00 0.14 0.00 82 1012.9
20260507052016 60 0.0 1.0 0.00 0.14 0.00 82 1012.9
20260507051517 60 203 1.0 3.0 0.00 0.14 0.00 82 1012.8
20260507051016 60 203 2.0 4.0 0.00 0.14 0.00 82 1012.8
20260507050516 60 180 1.0 3.0 0.00 0.14 0.00 82 1012.8
20260507050016 60 180 2.0 4.0 0.00 0.14 0.00 82 1012.7
20260507045516 60 158 2.0 4.0 0.00 0.14 0.00 82 1012.6
20260507045016 60 203 2.0 4.0 0.00 0.14 0.00 82 1012.6
20260507044516 60 203 2.0 5.0 0.00 0.14 0.00 82 1012.5
20260507044016 60 203 2.0 4.0 0.00 0.14 0.00 82 1012.5
20260507043516 60 203 3.0 5.0 0.00 0.14 0.00 82 1012.3
20260507043016 60 203 3.0 5.0 0.00 0.14 0.00 82 1012.2
20260507042516 60 203 3.0 4.0 0.00 0.14 0.00 82 1012.2
20260507042016 60 203 2.0 4.0 0.00 0.14 0.00 82 1012.1
20260507041516 60 180 2.0 4.0 0.00 0.14 0.00 82 1012.1
20260507041016 60 180 2.0 4.0 0.00 0.14 0.00 82 1012.0
20260507040516 60 180 1.0 4.0 0.00 0.14 0.00 82 1012.0
20260507040016 60 158 1.0 5.0 0.00 0.14 0.00 82 1012.0
20260507035516 60 158 2.0 7.0 0.00 0.14 0.00 82 1012.0
20260507035016 60 180 2.0 7.0 0.00 0.14 0.00 82 1011.9
20260507034516 60 180 3.0 8.0 0.00 0.14 0.00 82 1011.9
20260507034016 59 180 3.0 7.0 0.00 0.14 0.00 81 1011.8
20260507033516 59 158 3.0 7.0 0.00 0.14 0.00 81 1011.8
20260507033016 59 180 3.0 7.0 0.00 0.14 0.00 81 1011.8
20260507032515 59 158 2.0 5.0 0.00 0.14 0.00 81 1011.7
20260507032016 59 158 2.0 5.0 0.00 0.14 0.00 80 1011.7
20260507031516 59 180 2.0 6.0 0.00 0.14 0.00 80 1011.6
20260507031016 59 158 2.0 5.0 0.00 0.14 0.00 80 1011.6
20260507030515 59 180 2.0 5.0 0.00 0.14 0.00 80 1011.6
20260507030016 59 158 1.0 4.0 0.00 0.14 0.00 80 1011.6
20260507025516 59 158 2.0 5.0 0.00 0.14 0.00 80 1011.5
20260507025015 59 158 2.0 5.0 0.00 0.14 0.00 80 1011.6
20260507024517 59 180 2.0 4.0 0.00 0.14 0.00 79 1011.6
20260507024016 59 180 2.0 4.0 0.00 0.14 0.00 79 1011.6
20260507023516 59 158 2.0 5.0 0.00 0.14 0.00 79 1011.5
20260507023015 59 158 1.0 3.0 0.00 0.14 0.00 78 1011.4
20260507022516 59 158 2.0 4.0 0.00 0.14 0.00 78 1011.3
20260507022016 59 158 2.0 4.0 0.00 0.14 0.00 78 1011.3
20260507021516 59 158 2.0 3.0 0.00 0.14 0.00 78 1011.4
20260507021016 59 180 2.0 4.0 0.00 0.14 0.00 78 1011.4
20260507020516 59 0.0 2.0 0.00 0.14 0.00 78 1011.4
20260507020015 59 180 1.0 3.0 0.00 0.14 0.00 78 1011.5
20260507015515 59 180 1.0 3.0 0.00 0.14 0.00 78 1011.5
20260507015015 59 180 2.0 5.0 0.00 0.14 0.00 78 1011.5
20260507014516 59 158 2.0 5.0 0.00 0.14 0.00 78 1011.5
20260507014016 59 158 2.0 4.0 0.00 0.14 0.00 78 1011.4
20260507013515 59 180 2.0 5.0 0.00 0.14 0.00 78 1011.3
20260507013016 59 180 3.0 7.0 0.00 0.14 0.00 78 1011.4
20260507012515 59 180 4.0 8.0 0.00 0.14 0.00 78 1011.3
20260507012015 59 180 2.0 4.0 0.00 0.14 0.00 77 1011.4
20260507011516 59 180 2.0 4.0 0.00 0.14 0.00 77 1011.3
20260507011015 59 180 2.0 6.0 0.00 0.14 0.00 77 1011.3
20260507010517 59 180 2.0 5.0 0.00 0.14 0.00 77 1011.2
20260507010016 60 180 3.0 5.0 0.00 0.14 0.00 77 1011.3
20260507005515 60 180 2.0 5.0 0.00 0.14 0.00 77 1011.3
20260507005016 60 180 2.0 5.0 0.00 0.14 0.00 77 1011.3
20260507004515 60 180 3.0 5.0 0.00 0.14 0.00 77 1011.3
20260507004015 60 180 2.0 6.0 0.00 0.14 0.00 77 1011.3
20260507003515 60 180 2.0 5.0 0.00 0.14 0.00 77 1011.2
20260507003015 60 180 2.0 5.0 0.00 0.14 0.00 77 1011.1
20260507002515 60 180 2.0 6.0 0.00 0.14 0.00 77 1011.1
20260507002016 60 158 3.0 7.0 0.00 0.14 0.00 77 1011.2
20260507001515 60 158 4.0 8.0 0.00 0.14 0.00 77 1011.2
20260507001015 60 158 4.0 7.0 0.00 0.14 0.00 77 1011.3
20260507000515 60 180 2.0 4.0 0.00 0.14 0.00 77 1011.4
20260507000016 60 180 2.0 5.0 0.00 0.14 0.00 77 1011.3
20260506235515 60 158 2.0 4.0 0.00 0.14 0.00 77 1011.4
20260506235016 60 180 2.0 4.0 0.00 0.14 0.00 77 1011.3
20260506234515 60 203 2.0 5.0 0.00 0.14 0.00 77 1011.3
20260506234016 60 203 3.0 6.0 0.00 0.14 0.00 78 1011.3
20260506233515 60 203 3.0 6.0 0.00 0.14 0.00 78 1011.3
20260506233015 60 203 4.0 8.0 0.00 0.14 0.00 78 1011.3
20260506232515 60 203 3.0 6.0 0.00 0.14 0.00 77 1011.3
20260506232015 60 180 3.0 8.0 0.00 0.14 0.00 77 1011.3
20260506231515 60 180 4.0 8.0 0.00 0.14 0.00 77 1011.3
20260506231015 60 203 4.0 6.0 0.00 0.14 0.00 77 1011.2
20260506230515 60 203 3.0 6.0 0.00 0.14 0.00 77 1011.2
20260506230015 60 203 2.0 4.0 0.00 0.14 0.00 77 1011.2
20260506225516 60 203 3.0 5.0 0.00 0.14 0.00 77 1011.2
20260506225015 60 225 3.0 5.0 0.00 0.14 0.00 77 1011.2
20260506224517 60 225 2.0 3.0 0.00 0.14 0.00 77 1011.2
20260506224015 60 248 1.0 3.0 0.00 0.14 0.00 77 1011.2
20260506223517 60 248 1.0 3.0 0.00 0.14 0.00 78 1011.3
20260506223017 60 248 2.0 4.0 0.00 0.14 0.00 78 1011.3
20260506222517 60 225 1.0 3.0 0.00 0.14 0.00 78 1011.3
20260506222015 60 248 2.0 5.0 0.01 0.14 0.00 78 1011.3
20260506221517 60 248 1.0 4.0 0.01 0.14 0.00 78 1011.3
20260506221017 60 248 2.0 4.0 0.01 0.14 0.00 78 1011.3
20260506220517 60 248 1.0 3.0 0.01 0.14 0.00 78 1011.2
20260506220017 60 225 1.0 3.0 0.01 0.14 0.14 79 1011.4
20260506215517 60 225 2.0 5.0 0.02 0.14 0.14 79 1011.3
20260506215017 60 270 2.0 4.0 0.02 0.14 0.14 79 1011.3
20260506214516 60 270 2.0 6.0 0.02 0.14 0.14 79 1011.3
20260506214016 60 248 1.0 3.0 0.02 0.14 0.14 79 1011.3
20260506213517 60 248 2.0 4.0 0.02 0.14 0.14 79 1011.3
20260506213017 60 248 1.0 3.0 0.02 0.14 0.14 80 1011.3
20260506212516 61 248 1.0 3.0 0.02 0.14 0.14 80 1011.1
20260506212016 61 248 2.0 5.0 0.02 0.13 0.13 80 1011.1
20260506211516 61 0.0 3.0 0.02 0.13 0.13 80 1011.1
20260506211016 61 0 1.0 2.0 0.02 0.13 0.13 80 1011.0
20260506210516 61 248 1.0 3.0 0.03 0.13 0.13 80 1011.0
20260506210016 61 248 3.0 6.0 0.03 0.13 0.13 80 1011.1
20260506205516 61 0 2.0 5.0 0.02 0.13 0.13 80 1011.0
20260506205016 61 0 2.0 5.0 0.02 0.13 0.13 80 1010.9
20260506204516 61 0 3.0 5.0 0.03 0.13 0.13 80 1010.8
20260506204016 61 0 2.0 5.0 0.03 0.13 0.13 81 1010.8
20260506203516 62 338 3.0 6.0 0.03 0.12 0.12 81 1010.8
20260506203016 62 338 3.0 6.0 0.04 0.12 0.12 81 1010.8
20260506202516 62 0 3.0 7.0 0.06 0.12 0.12 81 1010.8
20260506202016 62 0 2.0 6.0 0.06 0.11 0.11 81 1010.9
20260506201516 62 23 3.0 7.0 0.06 0.11 0.11 81 1010.8
20260506201017 62 0 3.0 5.0 0.07 0.11 0.11 81 1011.1
20260506200516 62 0 4.0 9.0 0.07 0.10 0.10 81 1011.0
20260506200016 62 338 2.0 7.0 0.07 0.10 0.10 81 1011.0
20260506195516 62 0 4.0 9.0 0.08 0.10 0.10 81 1011.0
20260506195016 63 338 4.0 7.0 0.08 0.10 0.10 81 1011.2
20260506194516 63 315 3.0 7.0 0.07 0.09 0.09 81 1011.4
20260506194016 63 338 2.0 6.0 0.07 0.09 0.09 81 1011.4
20260506193516 63 338 2.0 6.0 0.07 0.09 0.09 81 1011.3
20260506193016 63 315 1.0 3.0 0.06 0.08 0.08 81 1011.5
20260506192516 63 315 2.0 4.0 0.05 0.06 0.06 81 1011.4
20260506192016 63 315 3.0 5.0 0.04 0.06 0.06 82 1011.2
20260506191516 63 270 4.0 8.0 0.03 0.05 0.05 81 1011.2
20260506191016 63 293 6.0 11.0 0.03 0.04 0.04 81 1011.0
20260506190516 64 293 5.0 11.0 0.02 0.03 0.03 81 1010.9
20260506190016 64 293 4.0 8.0 0.02 0.03 0.03 81 1010.8
20260506185516 64 293 5.0 10.0 0.02 0.02 0.02 81 1010.7
20260506185016 65 270 3.0 6.0 0.02 0.02 0.02 81 1010.6
20260506184516 65 248 3.0 6.0 0.02 0.02 0.02 81 1010.4
20260506184016 65 270 3.0 5.0 0.02 0.02 0.02 80 1010.3
20260506183516 66 270 3.0 6.0 0.02 0.02 0.02 80 1010.3
20260506183016 66 270 3.0 6.0 0.02 0.02 0.02 79 1010.1
20260506182516 66 248 3.0 5.0 0.02 0.02 0.02 78 1010.0
20260506182016 67 248 2.0 4.0 0.02 0.02 0.02 78 1009.8
20260506181516 67 270 3.0 6.0 0.02 0.02 0.02 77 1009.8
20260506181016 68 270 4.0 6.0 0.01 0.01 0.01 76 1009.7
20260506180516 68 270 4.0 8.0 0.01 0.01 0.01 75 1009.8
20260506180016 69 248 4.0 8.0 0.01 0.01 0.01 73 1009.7
20260506175516 70 203 3.0 9.0 0.01 0.01 0.01 71 1009.8
20260506175016 71 203 8.0 13.0 0.00 0.00 0.00 67 1009.8
20260506174516 72 225 9.0 15.0 0.00 0.00 0.00 63 1009.8
20260506174016 73 225 7.0 16.0 0.00 0.00 0.00 59 1009.5
20260506173516 74 315 4.0 9.0 0.00 0.00 0.00 57 1008.6
20260506173016 75 338 2.0 4.0 0.00 0.00 0.00 56 1008.5
20260506172516 76 0 4.0 8.0 0.00 0.00 0.00 55 1008.3
20260506172016 76 0 4.0 8.0 0.00 0.00 0.00 53 1008.3
20260506171516 77 0 5.0 10.0 0.00 0.00 0.00 51 1008.4
20260506171016 78 315 2.0 10.0 0.00 0.00 0.00 48 1008.3
20260506170516 78 293 2.0 4.0 0.00 0.00 0.00 47 1008.3
20260506170016 79 293 3.0 5.0 0.00 0.00 0.00 46 1008.3
20260506165516 79 180 1.0 2.0 0.00 0.00 0.00 44 1008.2
20260506165016 79 158 1.0 4.0 0.00 0.00 0.00 43 1008.1
20260506164516 79 180 2.0 4.0 0.00 0.00 0.00 43 1008.2
20260506164016 79 158 3.0 7.0 0.00 0.00 0.00 43 1008.1
20260506163515 80 180 3.0 7.0 0.00 0.00 0.00 42 1008.1
20260506163016 80 158 3.0 8.0 0.00 0.00 0.00 42 1008.1
20260506162515 80 135 5.0 8.0 0.00 0.00 0.00 42 1008.1
20260506162016 80 135 5.0 8.0 0.00 0.00 0.00 41 1008.0
20260506161515 81 135 5.0 9.0 0.00 0.00 0.00 40 1008.1
20260506161015 81 135 5.0 9.0 0.00 0.00 0.00 40 1008.1
20260506160516 81 113 5.0 9.0 0.00 0.00 0.00 41 1008.1
20260506160016 81 113 6.0 9.0 0.00 0.00 0.00 40 1008.3
20260506155516 82 135 4.0 10.0 0.00 0.00 0.00 39 1008.3
20260506155016 82 135 5.0 8.0 0.00 0.00 0.00 39 1008.4
20260506154515 83 113 3.0 7.0 0.00 0.00 0.00 39 1008.4
20260506154015 83 158 4.0 8.0 0.00 0.00 0.00 38 1008.5
20260506153515 83 135 4.0 9.0 0.00 0.00 0.00 38 1008.4
20260506153015 84 113 6.0 10.0 0.00 0.00 0.00 38 1008.5
20260506152516 83 135 6.0 11.0 0.00 0.00 0.00 38 1008.4
20260506152015 83 135 6.0 10.0 0.00 0.00 0.00 38 1008.5
20260506151515 83 135 6.0 9.0 0.00 0.00 0.00 38 1008.6
20260506151015 83 135 5.0 9.0 0.00 0.00 0.00 38 1008.6
20260506150516 83 135 7.0 11.0 0.00 0.00 0.00 37 1008.7
20260506150016 84 135 5.0 10.0 0.00 0.00 0.00 36 1008.8
20260506145515 84 135 2.0 8.0 0.00 0.00 0.00 36 1008.7
20260506145016 85 135 7.0 12.0 0.00 0.00 0.00 35 1008.8
20260506144515 85 135 6.0 11.0 0.00 0.00 0.00 35 1008.8
20260506144015 85 135 4.0 10.0 0.00 0.00 0.00 35 1008.8
20260506143515 85 158 3.0 8.0 0.00 0.00 0.00 36 1008.9
20260506143015 85 113 3.0 8.0 0.00 0.00 0.00 35 1008.9
20260506142515 84 135 4.0 7.0 0.00 0.00 0.00 36 1009.0
20260506142015 84 135 6.0 13.0 0.00 0.00 0.00 36 1009.0
20260506141515 85 135 5.0 9.0 0.00 0.00 0.00 35 1009.0
20260506141015 85 113 5.0 12.0 0.00 0.00 0.00 34 1009.0
20260506140515 86 180 3.0 9.0 0.00 0.00 0.00 34 1009.1
20260506140016 85 203 3.0 8.0 0.00 0.00 0.00 34 1009.1
20260506135515 85 135 4.0 8.0 0.00 0.00 0.00 35 1009.1
20260506135016 85 158 5.0 10.0 0.00 0.00 0.00 35 1009.1
20260506134516 85 135 5.0 12.0 0.00 0.00 0.00 35 1009.1
20260506134015 85 135 6.0 12.0 0.00 0.00 0.00 36 1009.3
20260506133515 85 180 3.0 9.0 0.00 0.00 0.00 36 1009.3
20260506133015 85 135 5.0 9.0 0.00 0.00 0.00 36 1009.4
20260506132515 84 90 2.0 6.0 0.00 0.00 0.00 37 1009.4
20260506132015 84 68 4.0 9.0 0.00 0.00 0.00 37 1009.4
20260506131515 84 225 3.0 11.0 0.00 0.00 0.00 36 1009.6
20260506131015 84 225 3.0 7.0 0.00 0.00 0.00 36 1009.6
20260506130515 84 158 6.0 11.0 0.00 0.00 0.00 37 1009.7
20260506130015 84 158 4.0 9.0 0.00 0.00 0.00 37 1009.7
20260506125515 84 158 2.0 8.0 0.00 0.00 0.00 37 1009.7
20260506125015 83 135 3.0 7.0 0.00 0.00 0.00 38 1009.8
20260506124515 83 180 3.0 6.0 0.00 0.00 0.00 37 1009.8
20260506124015 83 158 5.0 10.0 0.00 0.00 0.00 38 1009.9
20260506123515 82 135 6.0 14.0 0.00 0.00 0.00 38 1009.9
20260506123015 82 135 5.0 12.0 0.00 0.00 0.00 39 1009.9
20260506122515 82 203 4.0 8.0 0.00 0.00 0.00 39 1010.1
20260506122015 81 203 5.0 9.0 0.00 0.00 0.00 40 1010.1
20260506121515 81 203 7.0 11.0 0.00 0.00 0.00 39 1010.2
20260506121017 82 180 5.0 11.0 0.00 0.00 0.00 40 1010.2
20260506120520 82 203 5.0 9.0 0.00 0.00 0.00 38 1010.2
20260506120017 82 90 6.0 13.0 0.00 0.00 0.00 39 1010.3
20260506115517 82 135 4.0 10.0 0.00 0.00 0.00 40 1010.3
20260506115015 81 225 8.0 14.0 0.00 0.00 0.00 39 1010.4
20260506114517 81 203 2.0 5.0 0.00 0.00 0.00 40 1010.4
20260506114018 81 248 5.0 10.0 0.00 0.00 0.00 40 1010.4